Simultaneous Nadir Overpasses (SNOs) Predictions

Prediction of SNOs between AQUA and GOES-15 Satellite Orbit:

Table of predicted SNOs for the next 14.0 days since TLE Epoch: 9/13/2019
Index Date Time (AQUA) AQUA Lat,Lon GOES-15 Lat,Lon Distance(km) Time Diff (sec)
1 09/14/2019 10:00:46 -0.04,-126.34 0.35,-128.13 203.94 80
2 09/14/2019 22:22:11 -1.06,-131.53 -0.34,-128.09 391.63 80
3 09/16/2019 22:10:00 -0.47,-128.58 -0.34,-128.04 61.55 80
4 09/18/2019 21:57:50 0.19,-125.63 -0.34,-127.98 267.95 80
5 09/19/2019 10:19:05 0.92,-130.78 0.33,-128.00 316.44 80
6 09/21/2019 10:06:54 0.32,-127.82 0.33,-127.93 12.03 80
7 09/23/2019 09:54:43 -0.28,-124.86 0.32,-127.86 339.43 80
8 09/23/2019 22:16:08 -0.82,-130.06 -0.31,-127.80 258.04 80
9 09/25/2019 22:03:58 -0.15,-127.11 -0.31,-127.71 68.92 80




NCC Satellite Simultaneous Nadir Overpasses (SNOs) Prediction Service
